CW8198 Weather Reports


Display with metric or nautical units.
time (UTC)temp
F
wind
direction
speed
MPH
gust
MPH
rain 1hr
in
rain 24hr
in
rain mn
in
humidity
%
barometer
mb
20260504205320 79 347 9.0 17.0 0.00 0.00 0.00 33 1002.8
20260504204319 80 310 8.0 19.0 0.00 0.00 0.00 33 1002.5
20260504203819 80 11 7.0 19.0 0.00 0.00 0.00 34 1002.6
20260504203318 80 26 9.0 15.0 0.00 0.00 0.00 35 1002.5
20260504202818 80 23 6.0 14.0 0.00 0.00 0.00 39 1002.5
20260504202319 80 69 6.0 17.0 0.00 0.00 0.00 38 1002.4
20260504201818 80 11 6.0 17.0 0.00 0.00 0.00 38 1002.5
20260504200816 80 18 9.0 21.0 0.00 0.00 0.00 39 1002.3
20260504200316 80 9 8.0 20.0 0.00 0.00 0.00 38 1002.4
20260504195816 80 311 6.0 17.0 0.00 0.00 0.00 36 1002.4
20260504195316 80 11 8.0 21.0 0.00 0.00 0.00 38 1002.5
20260504194816 80 336 13.0 21.0 0.00 0.00 0.00 38 1002.4
20260504194315 81 342 7.0 18.0 0.00 0.00 0.00 38 1002.2
20260504193815 81 315 8.0 18.0 0.00 0.00 0.00 38 1002.2
20260504192814 81 24 9.0 17.0 0.00 0.00 0.00 38 1002.2
20260504192316 81 309 4.0 19.0 0.00 0.00 0.00 40 1002.1
20260504191314 81 279 8.0 21.0 0.00 0.00 0.00 35 1002.0
20260504190814 81 314 7.0 16.0 0.00 0.00 0.00 34 1002.0
20260504190313 81 317 5.0 19.0 0.00 0.00 0.00 36 1001.9
20260504185813 81 269 7.0 19.0 0.00 0.00 0.00 35 1001.8
20260504185313 81 319 6.0 13.0 0.00 0.00 0.00 35 1001.8
20260504184813 82 337 7.0 15.0 0.00 0.00 0.00 35 1001.8
20260504184312 82 284 8.0 20.0 0.00 0.00 0.00 36 1001.7
20260504183812 83 15 11.0 20.0 0.00 0.00 0.00 33 1001.7
20260504183312 83 314 4.0 15.0 0.00 0.00 0.00 31 1001.7
20260504182812 83 300 6.0 15.0 0.00 0.00 0.00 32 1001.6
20260504182313 83 342 8.0 14.0 0.00 0.00 0.00 32 1001.6
20260504181812 83 325 7.0 13.0 0.00 0.00 0.00 32 1001.6
20260504181312 83 351 5.0 16.0 0.00 0.00 0.00 34 1001.5
20260504180811 83 324 6.0 16.0 0.00 0.00 0.00 33 1001.6
20260504180311 83 32 6.0 18.0 0.00 0.00 0.00 31 1001.5
20260504175811 83 321 9.0 18.0 0.00 0.00 0.00 33 1001.6
20260504174310 83 22 5.0 14.0 0.00 0.00 0.00 32 1001.6
20260504173810 82 317 6.0 17.0 0.00 0.00 0.00 33 1001.6
20260504172809 82 300 5.0 15.0 0.00 0.00 0.00 35 1001.7
20260504172310 82 302 6.0 15.0 0.00 0.00 0.00 34 1001.7
20260504171809 82 309 5.0 13.0 0.00 0.00 0.00 34 1001.7
20260504171309 81 242 7.0 13.0 0.00 0.00 0.00 37 1001.9
20260504170809 81 9 7.0 12.0 0.00 0.00 0.00 35 1001.9
20260504170309 81 279 5.0 18.0 0.00 0.00 0.00 35 1001.9
20260504150302 71 259 3.0 11.0 0.00 0.00 0.00 47 1002.0
20260504141259 65 238 1.0 6.0 0.00 0.00 0.00 64 1002.4
20260504140800 64 331 2.0 6.0 0.00 0.00 0.00 66 1002.5
20260504140258 62 265 1.0 5.0 0.00 0.00 0.00 71 1002.5
20260504130755 47 269 2.0 3.0 0.00 0.00 0.00 90 1002.7
20260504130254 47 309 2.0 3.0 0.00 0.00 0.00 90 1002.8
20260504120246 43 291 0.0 1.0 0.00 0.00 0.00 89 1002.2
20260504100214 44 111 0.0 1.0 0.00 0.00 0.00 88 1002.6
20260504081150 46 51 0.0 1.0 0.00 0.00 0.00 85 1003.9
20260504080644 46 34 0.0 1.0 0.00 0.00 0.00 85 1003.9
20260504080144 46 9 0.0 1.0 0.00 0.00 0.00 85 1004.0
20260504070127 48 334 0.0 2.0 0.00 0.00 0.00 82 1005.0
20260504060118 49 9 1.0 2.0 0.00 0.00 0.00 78 1005.8
20260504050606 52 146 1.0 1.0 0.00 0.00 0.00 74 1006.4
20260504050106 52 178 0.0 1.0 0.00 0.00 0.00 73 1006.5
20260504045608 53 51 0.0 1.0 0.00 0.00 0.00 72 1006.5
20260504045105 53 319 1.0 1.0 0.00 0.00 0.00 72 1006.4
20260504044606 53 265 0.0 1.0 0.00 0.00 0.00 72 1006.5
20260504043605 54 309 1.0 3.0 0.00 0.00 0.00 71 1006.6
20260504043105 54 129 1.0 2.0 0.00 0.00 0.00 71 1006.6
20260504042605 54 9 1.0 2.0 0.00 0.00 0.00 71 1006.7
20260504042104 54 119 0.0 2.0 0.00 0.00 0.00 71 1006.7
20260504041604 54 126 1.0 2.0 0.00 0.00 0.00 71 1006.7
20260504041103 55 119 1.0 2.0 0.00 0.00 0.00 70 1006.7
20260504040604 55 221 0.0 2.0 0.00 0.00 0.00 70 1006.9
20260504040104 55 282 0.0 1.0 0.00 0.00 0.00 69 1006.8
20260504035103 56 265 0.0 2.0 0.00 0.00 0.00 68 1007.2
20260504034058 56 149 0.0 1.0 0.00 0.00 0.00 68 1007.2
20260504033558 56 265 0.0 1.0 0.00 0.00 0.00 67 1007.4
20260504033057 57 291 0.0 1.0 0.00 0.00 0.00 66 1007.4
20260504032541 57 51 0.0 1.0 0.00 0.00 0.00 66 1007.4
20260504032041 57 9 0.0 2.0 0.00 0.00 0.00 66 1007.3
20260504031541 57 9 0.0 2.0 0.00 0.00 0.00 65 1007.5
20260504031041 57 309 0.0 2.0 0.00 0.00 0.00 65 1007.5
20260504030541 58 238 1.0 2.0 0.00 0.00 0.00 64 1007.4
20260504025540 58 221 1.0 2.0 0.00 0.00 0.00 63 1007.5
20260504025040 59 137 0.0 2.0 0.00 0.00 0.00 63 1007.6
20260504024539 59 93 0.0 3.0 0.00 0.00 0.00 62 1007.5
20260504024038 59 51 1.0 3.0 0.00 0.00 0.00 61 1007.5
20260504023538 60 108 1.0 2.0 0.00 0.00 0.00 62 1007.6
20260504023038 60 9 0.0 2.0 0.00 0.00 0.00 59 1007.6
20260504022538 61 238 1.0 2.0 0.00 0.00 0.00 56 1007.6
20260504022038 61 232 0.0 2.0 0.00 0.00 0.00 54 1007.5
20260504021538 62 137 0.0 2.0 0.00 0.00 0.00 53 1007.6
20260504020037 64 34 0.0 2.0 0.00 0.00 0.00 49 1007.7
20260504015537 64 105 1.0 2.0 0.00 0.00 0.00 48 1007.7
20260504015038 65 119 1.0 2.0 0.00 0.00 0.00 45 1007.7
20260504014036 66 309 0.0 2.0 0.00 0.00 0.00 45 1007.9
20260504013536 66 115 1.0 3.0 0.00 0.00 0.00 43 1007.7
20260504013036 67 129 2.0 3.0 0.00 0.00 0.00 42 1007.8
20260504012535 68 185 1.0 3.0 0.00 0.00 0.00 44 1007.7
20260504012035 68 137 0.0 1.0 0.00 0.00 0.00 40 1007.6
20260504011529 69 178 0.0 1.0 0.00 0.00 0.00 39 1007.7
20260504011030 69 205 0.0 1.0 0.00 0.00 0.00 41 1007.7
20260504010529 70 265 0.0 2.0 0.00 0.00 0.00 38 1007.7
20260504005529 70 205 1.0 2.0 0.00 0.00 0.00 37 1007.8
20260504004029 71 309 1.0 3.0 0.00 0.00 0.00 36 1007.9
20260504003528 71 265 1.0 4.0 0.00 0.00 0.00 36 1007.9
20260504003028 72 340 2.0 5.0 0.00 0.00 0.00 35 1007.9
20260504002528 73 325 1.0 5.0 0.00 0.00 0.00 35 1008.0
20260504002027 73 341 1.0 3.0 0.00 0.00 0.00 31 1008.0
20260504001528 74 9 2.0 5.0 0.00 0.00 0.00 32 1008.0
20260504001027 74 291 3.0 9.0 0.00 0.00 0.00 32 1008.1
20260504000528 75 282 1.0 9.0 0.00 0.00 0.00 35 1008.0
20260504000026 75 259 3.0 7.0 0.00 0.00 0.00 32 1008.1
20260503234525 76 245 2.0 8.0 0.00 0.00 0.00 32 1008.1
20260503234025 76 273 2.0 8.0 0.00 0.00 0.00 33 1008.1
20260503233524 77 291 3.0 10.0 0.00 0.00 0.00 31 1008.2
20260503233025 78 296 5.0 10.0 0.00 0.00 0.00 30 1008.2
20260503232026 78 325 2.0 7.0 0.00 0.00 0.00 32 1008.2
20260503231523 78 295 2.0 9.0 0.00 0.00 0.00 31 1008.2
20260503231023 78 342 3.0 9.0 0.00 0.00 0.00 32 1008.2
20260503230022 80 72 1.0 7.0 0.00 0.00 0.00 24 1008.3
20260503225522 81 282 2.0 8.0 0.00 0.00 0.00 32 1008.3
20260503225022 80 317 2.0 8.0 0.00 0.00 0.00 31 1008.3
20260503224522 80 295 2.0 8.0 0.00 0.00 0.00 30 1008.3
20260503224022 80 315 3.0 11.0 0.00 0.00 0.00 30 1008.3
20260503223021 81 247 3.0 7.0 0.00 0.00 0.00 29 1008.3
20260503222023 80 325 2.0 10.0 0.00 0.00 0.00 29 1008.4
20260503220520 78 312 3.0 13.0 0.00 0.00 0.00 31 1008.5
20260503220018 78 348 3.0 11.0 0.00 0.00 0.00 31 1008.5
20260503215519 78 259 2.0 7.0 0.00 0.00 0.00 35 1008.6
20260503215019 78 238 2.0 8.0 0.00 0.00 0.00 31 1008.6
20260503214018 77 325 3.0 10.0 0.00 0.00 0.00 33 1008.8
20260503213518 77 249 6.0 10.0 0.00 0.00 0.00 27 1008.8
20260503213018 77 272 2.0 9.0 0.00 0.00 0.00 30 1008.7
20260503212517 78 97 3.0 14.0 0.00 0.00 0.00 28 1008.9
20260503212019 79 28 7.0 14.0 0.00 0.00 0.00 30 1009.0
20260503211517 80 298 5.0 9.0 0.00 0.00 0.00 32 1009.1
20260503211017 79 300 3.0 9.0 0.00 0.00 0.00 32 1009.1
20260503210517 78 319 2.0 9.0 0.00 0.00 0.00 30 1009.3
20260503210017 77 338 3.0 9.0 0.00 0.00 0.00 37 1009.4